NUUKSIO Weather Reports


time (UTC)temp
F
wind
direction
speed
knots
gust
knots
rain 1hr
in
rain 24hr
in
rain mn
in
humidity
%
barometer
mb
20260906060123 51 305 7.0 14.8 0.00 0.01 0.00 79 1005.6
20260906054453 50 313 7.0 12.2 0.00 0.01 0.00 84 1005.4
20260906044124 49 324 7.8 14.8 0.00 0.01 0.00 95 1005.0
20260906042452 48 304 6.1 12.2 0.00 0.01 0.00 98 1004.7
20260906040453 48 302 6.1 11.3 0.00 0.01 0.00 98 1004.4
20260906034123 48 300 6.1 11.3 0.00 0.01 0.00 99 1004.0
20260906032454 48 300 7.0 13.0 0.00 0.01 0.00 99 1003.9
20260906030454 48 297 7.0 13.0 0.00 0.01 0.00 100 1003.7
20260906024124 47 298 6.1 12.2 0.00 0.01 0.00 100 1003.4
20260906022454 47 299 6.1 13.0 0.00 0.01 0.00 100 1003.3
20260906020453 46 294 6.1 11.3 0.00 0.01 0.00 100 1003.1
20260906014455 47 295 6.1 11.3 0.00 0.01 0.00 100 1002.7
20260906012454 47 297 6.1 13.0 0.00 0.01 0.00 100 1002.7
20260906010454 47 299 6.1 11.3 0.00 0.01 0.00 100 1002.5
20260906004455 47 303 6.1 10.4 0.00 0.01 0.00 100 1002.3
20260906002454 47 299 6.1 13.0 0.00 0.01 0.00 100 1002.1
20260905234453 47 298 7.0 11.3 0.00 0.01 0.00 100 1001.6
20260905232452 48 294 5.2 9.6 0.00 0.01 0.00 100 1001.5
20260905230453 48 296 5.2 8.7 0.00 0.01 0.00 100 1001.3
20260905224123 49 305 4.3 7.8 0.00 0.01 0.00 100 1001.1
20260905222452 49 307 5.2 9.6 0.00 0.01 0.00 100 1001.0
20260905220452 49 300 5.2 8.7 0.00 0.01 0.00 100 1000.8
20260905214453 50 315 6.1 11.3 0.00 0.01 0.00 99 1000.6
20260905212453 50 311 5.2 9.6 0.00 0.01 0.00 99 1000.5
20260905210453 50 308 5.2 8.7 0.00 0.01 0.00 99 1000.3
20260905204452 51 310 5.2 8.7 0.00 0.01 0.01 98 1000.0
20260905202452 51 309 5.2 7.8 0.00 0.01 0.01 97 999.8
20260905194452 53 308 5.2 9.6 0.00 0.01 0.01 93 999.4
20260905192122 54 304 5.2 9.6 0.00 0.01 0.01 91 999.3
20260905190122 54 299 6.1 11.3 0.00 0.01 0.01 88 999.2
20260905182451 56 306 4.3 8.7 0.00 0.01 0.01 83 998.8
20260905180121 56 299 5.2 8.7 0.00 0.01 0.01 84 998.7
20260905174449 56 294 3.5 7.0 0.00 0.01 0.01 82 998.5
20260905172121 56 287 3.5 6.1 0.00 0.01 0.01 79 998.1
20260905164452 57 285 3.5 5.2 0.00 0.01 0.01 79 997.9
20260905162123 57 303 4.3 7.8 0.00 0.01 0.01 75 997.7
20260905160452 57 299 4.3 8.7 0.00 0.01 0.01 73 997.4
20260905154122 58 292 3.5 7.8 0.00 0.01 0.01 72 997.3
20260905152122 61 307 7.0 12.2 0.00 0.01 0.01 61 997.1
20260905144451 61 323 3.5 7.8 0.00 0.01 0.01 63 996.8
20260905142452 61 335 6.1 11.3 0.00 0.01 0.01 61 996.7
20260905140452 60 336 3.5 6.1 0.00 0.01 0.01 72 996.6
20260905134451 60 325 4.3 8.7 0.00 0.00 0.00 71 996.4
20260905132121 64 9 4.3 9.6 0.00 0.00 0.00 53 996.1
20260905130454 62 336 3.5 7.0 0.00 0.00 0.00 59 996.1
20260905124451 62 348 6.1 11.3 0.00 0.00 0.00 58 996.0
20260905122450 64 273 6.1 11.3 0.00 0.00 0.00 59 995.8
20260905120451 64 209 4.3 9.6 0.00 0.00 0.00 65 995.6
20260905114450 60 231 2.6 7.0 0.00 0.00 0.00 72 995.7
20260905112453 56 235 2.6 3.5 0.00 0.00 0.00 80 995.8
20260905110450 58 261 5.2 10.4 0.00 0.00 0.00 75 995.7
20260905104451 63 284 5.2 11.3 0.00 0.00 0.00 57 995.3
20260905102451 62 248 4.3 8.7 0.00 0.00 0.00 64 995.1
20260905100450 60 219 3.5 6.1 0.00 0.00 0.00 67 995.0
20260905094449 61 221 4.3 8.7 0.00 0.00 0.00 71 994.9
20260905092450 60 221 3.5 7.0 0.00 0.00 0.00 73 994.9
20260905090451 58 266 2.6 5.2 0.00 0.00 0.00 80 994.9
20260905084451 56 278 2.6 6.1 0.00 0.00 0.00 84 994.9
20260905082453 55 295 3.5 5.2 0.00 0.00 0.00 90 994.8
20260905074449 54 295 3.5 7.0 0.00 0.00 0.00 94 994.8
20260905072449 52 298 2.6 4.3 0.00 0.00 0.00 100 994.6
20260905064119 52 296 2.6 4.3 0.00 0.00 0.00 100 994.4